Home > Weather > Karaikudi > Past weeks

Flag for India Past Weather in Karaikudi, Tamil Nadu, India — Yesterday and Last 2 Weeks

Now
100 °F

Scattered clouds.


Feels Like: 105 °F
Forecast: 76 / 96 °F
Wind: 12 mph from Northwest

Location: Tiruchchirapalli

Current Time: Aug 24, 2016 at 4:00:24 PM

Latest Report: Aug 24, 2016 at 3:30 PM


Visibility: 5 mi

Pressure: 29.62 "Hg

Humidity: 33%

Dew Point: 66 °F

Location of KaraikudiLocation

Past Weather in Karaikudi — Graph

°F

Karaikudi Temperature Yesterday

Maximum temperature yesterday: 100 °F (at 3:00 PM)
Minimum temperature yesterday: 82 °F (at 1:00 AM)
Average temperature yesterday: 89 °F

High & Low Weather Summary for the Past Weeks

 TemperatureHumidityPressure
High102 °F (Aug 22, 11:30 PM)84% (Aug 13, 9:00 PM)29.83 "Hg (Aug 13, 9:00 PM)
Low81 °F (Aug 10, 6:00 AM)33% (Aug 11, 5:30 PM)29.56 "Hg (Aug 20, 4:30 PM)
Average89 °F53%29.71 "Hg
* Reported Aug 9 2:30 PM — Aug 24 3:00 PM, Karaikudi, Weather by CustomWeather, © 2016

Note: Actual official high and low records may vary slightly from our data, if they occured in-between our weather recording intervals... More about our weather records

Advertising

Karaikudi Weather History for the Previous 24 Hours

Scroll right to see more
 ConditionsComfort  
Time TempWeatherWind HumidityBarometerVisibility
3:00 PM
Wed, Aug 24
100 °FScattered clouds.10 mph33%29.62 "Hg5 mi
2:30 PM99 °FScattered clouds.12 mph35%29.65 "Hg5 mi
2:00 PM99 °FScattered clouds.9 mph37%29.65 "Hg5 mi
1:30 PM97 °FScattered clouds.12 mph39%29.65 "Hg5 mi
1:00 PM97 °FPassing clouds.12 mph39%29.68 "Hg5 mi
12:30 PM97 °FPassing clouds.12 mph39%29.68 "Hg5 mi
12:00 PM95 °FPassing clouds.9 mph41%29.71 "Hg5 mi
11:30 AM93 °FPassing clouds.12 mph44%29.71 "Hg5 mi
11:00 AM91 °FScattered clouds.9 mph46%29.74 "Hg5 mi
10:30 AM90 °FScattered clouds.9 mph52%29.74 "Hg5 mi
10:00 AM88 °FScattered clouds.14 mph55%29.74 "Hg4 mi
9:30 AM86 °FScattered clouds.9 mph59%29.74 "Hg4 mi
9:00 AM86 °FScattered clouds.12 mph62%29.74 "Hg4 mi
8:30 AM84 °FScattered clouds.13 mph62%29.74 "Hg3 mi
8:00 AM84 °FScattered clouds.13 mph62%29.74 "Hg3 mi
7:30 AM84 °FScattered clouds.12 mph62%29.74 "Hg3 mi
7:00 AM82 °FScattered clouds.13 mph62%29.74 "Hg3 mi
6:30 AM82 °FPassing clouds.12 mph62%29.71 "Hg3 mi
6:00 AM82 °FPassing clouds.10 mph62%29.71 "Hg3 mi
5:30 AM82 °FPassing clouds.12 mph62%29.71 "Hg3 mi
5:00 AM82 °FPassing clouds.12 mph62%29.71 "Hg4 mi
4:30 AM82 °FPassing clouds.10 mph62%29.71 "Hg4 mi
4:00 AM82 °FPassing clouds.12 mph62%29.71 "Hg4 mi
3:30 AM84 °FPassing clouds.13 mph58%29.71 "Hg4 mi
3:00 AM84 °FPassing clouds.12 mph58%29.71 "Hg4 mi
2:30 AM84 °FPassing clouds.10 mph58%29.71 "Hg4 mi
2:00 AM84 °FPassing clouds.12 mph58%29.71 "Hg4 mi
1:30 AM86 °FPassing clouds.12 mph55%29.71 "Hg4 mi
1:00 AM86 °FPassing clouds.9 mph55%29.71 "Hg4 mi
12:30 AM86 °FPassing clouds.10 mph55%29.71 "Hg4 mi
12:00 AM86 °FPassing clouds.9 mph55%29.74 "Hg4 mi
11:30 PM
Tue, Aug 23
86 °FPassing clouds.10 mph55%29.74 "Hg4 mi
11:00 PM86 °FPassing clouds.12 mph59%29.77 "Hg4 mi
10:30 PM86 °FPassing clouds.14 mph59%29.74 "Hg4 mi
10:00 PM86 °FPassing clouds.10 mph59%29.74 "Hg4 mi
9:30 PM88 °FPassing clouds.13 mph52%29.74 "Hg4 mi
9:00 PM88 °FPassing clouds.12 mph52%29.74 "Hg4 mi
8:30 PM90 °FPassing clouds.10 mph49%29.74 "Hg4 mi
8:00 PM93 °FPassing clouds.9 mph47%29.71 "Hg4 mi
7:30 PM95 °FPassing clouds.7 mph44%29.71 "Hg4 mi
7:00 PM97 °FPassing clouds.6 mph42%29.68 "Hg4 mi
6:30 PM97 °FScattered clouds.5 mph42%29.68 "Hg4 mi
5:30 PM99 °FScattered clouds.7 mph37%29.62 "Hg4 mi
5:00 PM99 °FScattered clouds.7 mph37%29.62 "Hg4 mi
4:30 PM99 °FScattered clouds.7 mph37%29.62 "Hg4 mi
4:00 PM99 °FScattered clouds.7 mph37%29.62 "Hg4 mi
Weather by CustomWeather, © 2016

See weather overviewHow to use our weather pages